sat.trackr.live / text

‹ back to catalog

TIANMU-1 15

NORAD 58700 · 2024-004A

PAYLOAD ACTIVE UNKNOWN

§ Identity

Operator
Country
PRC
Launch date
2024-01-05
Launch site
JSC
Launch vehicle
Mass (kg)
RCS (m²)

Purposes: earth_obs

External: N2YO · Heavens-Above · Gunter

§ Orbital elements

Epoch: 2026-09-19T23:29:34.239264Z

Period
94.27 min
Inclination
97.4674°
Eccentricity
0.0007437
Mean motion
15.27485460 rev/d
Perigee alt
478.2 km
Apogee alt
488.4 km
Semi-major
6,861.5 km
B*
1.3634e-4
RAAN
89.2141°
Arg perigee
14.0923°
Mean anomaly
346.0523°
Rev number
15,024

§ Raw data

TIANMU-1 151 58700U 24004A   26262.97886851  .00003593  00000+0  13634-3 0  99992 58700  97.4674  89.2141 0007437  14.0923 346.0523 15.27485460150241

JSON: /api/v1/satellites/58700 · /tle

For live sub-satellite position, see the globe view (requires WebGL).

§ Visibility from observer

Set your observer location to see the next 7 days of passes ≥ 10°. The values pass through the URL so the page stays shareable.

No JS? Fill the form by hand. The geolocation button needs JavaScript.